Regional Weather Roundup
Issued by NWS Cleveland, OH

Home | Current Version | Previous Version | Graphics & Text | Print | Product List | Glossary On
Versions: 1 2 3 4 5 6 7 8 9 10 11 12 13 14 15 16 17 18 19 20 21 22 23 24 25 26 27 28 29 30 31 32 33 34 35 36 37 38 39 40 41 42 43 44 45 46 47 48 49 50
875
ASUS41 KCLE 191500
RWRCLE
OHIO REGIONAL WEATHER ROUNDUP
NATIONAL WEATHER SERVICE WILMINGTON, OH
1000 AM EST THU JAN 19 2017

NOTE: "FAIR" INDICATES FEW OR NO CLOUDS BELOW 12,000 FEET WITH NO
SIGNIFICANT WEATHER AND/OR OBSTRUCTIONS TO VISIBILITY.

OHZ001>008-015>018-024>027-034-035-043-044-191600-
   NORTHWEST OHIO

CITY           SKY/WX    TMP DP  RH WIND       PRES   REMARKS
DEFIANCE       CLOUDY    34  31  88 SW3       30.08S
FINDLAY        CLOUDY    37  32  82 S5        30.07F
TOLEDO EXPRESS CLOUDY    34  33  96 W3        30.07F
TOLEDO EXEC    CLOUDY    36  34  92 S8        30.09S FOG
LIMA           CLOUDY    35  35 100 S3        30.06S FOG
$$

OHZ009>014-019>023-028>033-038-089-191600-
   NORTHEAST OHIO

CITY           SKY/WX    TMP DP  RH WIND       PRES   REMARKS
CLE-HOPKINS    CLOUDY    39  33  79 S6        30.11F
CLE-LAKEFRONT  CLOUDY    37  34  89 W3        30.09F
CUY CO. ARPT   CLOUDY    39  36  87 CALM      30.09F
LORAIN-ELYRIA  CLOUDY    36  33  89 SW5       30.09S
ASHTABULA      CLOUDY    36  33  89 SW5       30.11S
AKRON-CANTON   CLOUDY    38  34  85 SW5       30.08F FOG
WOOSTER        NOT AVBL
MANSFIELD      CLOUDY    36  35  96 S7        30.07R
YOUNGSTOWN     CLOUDY    37  33  85 W7        30.09F
$$

OHZ042-051>053-060>062-070>072-077>081-191600-
  SOUTHWEST OHIO

CITY           SKY/WX    TMP DP  RH WIND       PRES   REMARKS
CINC-COVINGTON CLOUDY    41  38  89 SE8       30.04F
CINC-LUNKEN    FAIR      41  39  93 NE5       30.09S
HAMILTON       FAIR      41  38  89 E6        30.08F
DAYTON         NOT AVBL
WRIGHT-PAT AFB NOT AVBL
DAYTON GENERAL FAIR      39  36  89 SE3       30.07F
WILMINGTON       N/A    N/A N/A N/A MISG      30.08R
$$

OHZ036-037-039>041-045>050-054>059-063>069-073>076-082>088-191600-
  CENTRAL AND SOUTHEAST OHIO

CITY           SKY/WX    TMP DP  RH WIND       PRES   REMARKS
COLUMBUS       CLOUDY    40  36  86 E3        30.09S
OSU AIRPORT    CLOUDY    39  36  89 S6        30.08S
BOLTON FIELD   CLOUDY    37  36  93 S6        30.09S FOG
RICKENBACK AFB NOT AVBL
NEWARK         CLOUDY    39  35  86 SE6       30.09S
MARION         CLOUDY    37  34  89 SW7       30.08F
LANCASTER      CLOUDY    41  37  86 S5        30.09F
ZANESVILLE     CLOUDY    39  35  86 SE3       30.10S
NEW PHILLY     CLOUDY    38  36  92 CALM      30.11S
$$




USA.gov is the U.S. government's official web portal to all federal, state and local government web resources and services.